Location: La Fredeussais
(48.1780°N, 1.3980°W)
Time: 08:25:31
(UTC+00:00)

Cosmos 1271 Rocket - Pass Details

Date: 09 May 2021
Orbit: 497 x 545 km, 81.2° (Epoch: 13 June)

Event Time Altitude Azimuth Distance (km) Brightness Sun altitude
Exits shadow 22:22:17 38° 221° (SW) 835 3.5 -20.5°
Maximum altitude 22:23:35 61° 284° (WNW) 624 3.2 -20.6°
Drops below altitude 10° 22:27:34 10° 5° (N) 1,826 6.3 -20.9°
Sets 22:29:46 0° 9° (N) 2,723 7.3 -21.1°
